Flag for Germany Weather past 2 weeks in Geesthacht, Schleswig-Holstein, Germany

Now
46 °F

Sprinkles. Broken clouds.


Feels Like: 38 °F
Forecast: 36 / 43 °F
Wind: 23 mph from West

Location: Hamburg-Fuhlsbuettel

Current Time: Mar 31, 2015 at 11:49:18 AM

Latest Report: Mar 31, 2015 at 11:20 AM


Visibility: N/A

Pressure: 28.97 "Hg

Humidity: 82%

Dew point: 41 °F

Location of GeesthachtLocation

Historic Weather in Geesthacht — Graph

°F

Geesthacht temperature yesterday

Maximum temperature yesterday: 46 °F (at 2:20 PM)
Minimum temperature yesterday: 39 °F (at 6:20 AM)
Average temperature yesterday: 42 °F

Past Weeks' High & Low Weather Summary

 TemperatureHumidityPressure
High59 °F (Mar 17, 2:50 PM)100% (Mar 20, 6:20 AM)30.45 "Hg (Mar 20, 6:20 AM)
Low28 °F (Mar 20, 6:20 AM)27% (Mar 19, 2:50 PM)28.91 "Hg (Mar 29, 10:20 PM)
Average44 °F74%29.94 "Hg
* Reported Mar 16 9:20 AM — Mar 31 10:20 AM, Geesthacht, Weather by CustomWeather, © 2015

Note: Actual official high and low records may vary slightly from our data, if they occured in-between our weather recording intervals... More about our weather records

Advertising

Geesthacht weather history for previous 24 hours

 ConditionsComfort  
Time TempWeatherWind HumidityBarometerVisibility
10:20 AM
Tue, Mar 31
46 °FLight rain. Partly sunny.23 mph87%28.97 "HgN/A
9:50 AM46 °FDrizzle. Partly sunny.21 mph87%28.94 "Hg5 mi
9:20 AM45 °FDrizzle. Broken clouds.15 mph93%28.94 "Hg5 mi
8:50 AM43 °FLight rain. Partly sunny.14 mph93%28.94 "Hg4 mi
8:20 AM41 °FLight rain. Partly sunny.14 mph93%28.94 "Hg4 mi
7:50 AM37 °FLight rain. Passing clouds.14 mph100%28.97 "Hg4 mi
7:20 AM36 °FRain. Passing clouds.15 mph100%28.97 "Hg4 mi
6:50 AM34 °FLight rain. Passing clouds.15 mph100%29.03 "Hg3 mi
6:20 AM36 °FLight rain. Passing clouds.21 mph93%29.06 "Hg6 mi
5:50 AM36 °FLight rain. Passing clouds.20 mph93%29.09 "Hg4 mi
5:20 AM34 °FSnow. Passing clouds.17 mph100%29.15 "Hg3 mi
4:50 AM34 °FLight rain. Passing clouds.17 mph100%29.21 "Hg3 mi
4:20 AM36 °FLight rain. Passing clouds.16 mph93%29.27 "HgN/A
3:50 AM37 °FLight rain. Mostly cloudy.17 mph87%29.33 "HgN/A
3:20 AM41 °FPassing clouds.18 mph66%29.36 "HgN/A
2:50 AM41 °FClear.15 mph70%29.42 "Hg10 mi
2:20 AM41 °FClear.17 mph76%29.45 "Hg10 mi
1:20 AM39 °FPassing clouds.14 mph81%29.50 "HgN/A
12:50 AM39 °FPassing clouds.14 mph81%29.53 "HgN/A
12:20 AM41 °FClear.16 mph76%29.56 "Hg10 mi
11:50 PM
Mon, Mar 30
41 °FPassing clouds.13 mph76%29.56 "HgN/A
11:20 PM41 °FPassing clouds.15 mph76%29.59 "HgN/A
10:50 PM41 °FPassing clouds.14 mph76%29.62 "HgN/A
10:20 PM41 °FPassing clouds.12 mph76%29.62 "HgN/A
9:50 PM41 °FPassing clouds.12 mph76%29.62 "HgN/A
9:20 PM41 °FPassing clouds.16 mph70%29.62 "HgN/A
8:50 PM43 °FScattered showers. Scattered clouds.18 mph66%29.62 "HgN/A
8:20 PM43 °FScattered showers. Partly sunny.18 mph71%29.62 "HgN/A
7:50 PM43 °FScattered showers. Partly sunny.24 mph71%29.59 "HgN/A
7:20 PM43 °FScattered showers. Partly sunny.24 mph71%29.59 "HgN/A
6:50 PM43 °FScattered clouds.28 mph76%29.56 "HgN/A
6:20 PM41 °FSnow flurries. Partly sunny.29 mph87%29.56 "HgN/A
5:50 PM41 °FSprinkles. Partly sunny.21 mph87%29.53 "HgN/A
5:20 PM45 °FSprinkles. Partly sunny.31 mph71%29.50 "HgN/A
4:50 PM45 °FPartly sunny.28 mph66%29.50 "HgN/A
4:20 PM43 °FScattered showers. Partly sunny.28 mph71%29.47 "HgN/A
3:50 PM45 °FScattered showers. Partly sunny.32 mph66%29.45 "HgN/A
3:20 PM45 °FScattered showers. Partly sunny.36 mph71%29.45 "HgN/A
2:50 PM46 °FScattered showers. Partly sunny.29 mph71%29.42 "HgN/A
2:20 PM46 °FPartly sunny.29 mph66%29.39 "HgN/A
1:50 PM45 °FScattered showers. Partly sunny.28 mph76%29.39 "HgN/A
1:20 PM45 °FScattered showers. Partly sunny.31 mph76%29.36 "HgN/A
12:50 PM43 °FSprinkles. Partly sunny.31 mph81%29.33 "HgN/A
12:20 PM43 °FScattered showers. Partly sunny.28 mph87%29.30 "HgN/A
11:50 AM43 °FSprinkles. Partly sunny.21 mph87%29.27 "HgN/A
11:20 AM43 °FSprinkles. Partly sunny.21 mph87%29.27 "HgN/A
Weather by CustomWeather, © 2015

See weather overviewHow to use our weather pages